TITAN 3C TRANSTAGE DEB, 43516

Orbit data source: Space-Track

TITAN 3C TRANSTAGE DEB, 43516 is space debris in GEO originally from a launch on Sun, 09 Feb 1969 UTC launched from the Air Force Eastern Test Range (AFETR). Debris objects in space refer to the collection of defunct objects orbiting the Earth. Examples of debris include non-operational satellites, rocket bodies, and fragments generated from explosions, collisions, or faulty payload assembly.

Loading next visibility...
Identifier
43516, 1969-013U
Orbit
GEO
Country
Flag of USUS
Related business
Manufacturer
Martin Marietta
Mission
Spacecraft
Bus & Motor
Unknown
Mass
Unknown
Launch date (UTC)
1969-02-09 (57 years ago)
Launch vehicle
Unknown
Launch site
Air Force Eastern Test Range (AFETR)
Object type
Payload
Rocket body
Debris
Shape & HBR
Unknown
Radar Cross Section
RCS unknown

Expand to show TLE details & history
Last TLE update: 2 days ago

TLE from 2 days ago
0 TITAN 3C TRANSTAGE DEB
1 43516U 69013U   25258.27832520 -.00000110  00000-0  00000-0 0  9992
2 43516   0.9300  51.5934 0105637  37.7419 271.8739  0.96512779 25867
Epoch: 2025-09-15T06:40Z
TLE epoch observation values (Epoch: 2025-09-15T06:40:47.297Z)
Latitude
-0.73638°
Longitude
-94.67874°
Altitude
36,864.699 km
Speed
3.036 km/s
True Right ascension
00h 00m 00s
True Declination
0° 44' 08"
Sunlit
Object was in full shadow at epoch
Visualization orbit readout
Latitude
Unknown
Longitude
Unknown
Altitude
Unknown
Speed
Unknown
Apparent Right ascension
Unknown
Apparent Declination
Unknown
Sunlit
N/A
Visualization observer readout
Local Sidereal Time
18:24:21
Azimuth
Unknown
Elevation
Unknown
Doppler factor
Unknown
Orbital elements
Apogee altitude
37,332.4 km
Perigee altitude
36,418.564 km
Semi-major axis
43,253.619 km
Eccentricity
0.01056
Inclination
0.93°
RAAN
51.5934°
Arg. of periapsis
37.7419°
True anomaly
270.6636°
Mean anomaly
271.8739°
Eccentric anomaly
271.26879°
Mean motion
0.24127 °/min
Orbital period
1,492.08 mins
BSTAR
0
Loading maneuver chart data...
Computing Atmospheric mass density...

Documentation

Showing up to 5 results
|